TimePDT,TemperatureF,Dew PointF,Humidity,Sea Level PressureIn,VisibilityMPH,Wind Direction,Wind SpeedMPH,Gust SpeedMPH,PrecipitationIn,Events,Conditions,WindDirDegrees,DateUTC
12:54 AM,60.1,55.9,86,30.12,10.0,SSW,8.1,-,N/A,,Unknown,210,2012-10-14 07:54:00
1:54 AM,60.1,55.9,86,30.09,10.0,South,8.1,-,N/A,,Unknown,190,2012-10-14 08:54:00
2:54 AM,60.1,55.0,83,30.09,10.0,SSW,5.8,-,N/A,,Unknown,210,2012-10-14 09:54:00
3:54 AM,60.1,55.0,83,30.06,10.0,SW,9.2,-,N/A,,Unknown,220,2012-10-14 10:54:00
4:54 AM,60.1,55.0,83,30.03,10.0,SSW,8.1,-,N/A,,Unknown,210,2012-10-14 11:54:00
5:54 AM,60.1,55.0,83,30.04,10.0,SSW,9.2,-,N/A,,Unknown,210,2012-10-14 12:54:00
6:54 AM,60.1,55.0,83,30.01,10.0,South,12.7,-,N/A,,Unknown,190,2012-10-14 13:54:00
7:54 AM,60.1,55.0,83,29.99,10.0,South,13.8,-,N/A,,Mostly Cloudy,190,2012-10-14 14:54:00
8:54 AM,60.1,55.9,86,29.98,10.0,South,16.1,25.3,N/A,,Mostly Cloudy,190,2012-10-14 15:54:00
9:54 AM,61.0,55.9,83,29.99,10.0,SSW,15.0,27.6,N/A,,Mostly Cloudy,200,2012-10-14 16:54:00
10:54 AM,62.1,55.9,80,29.99,10.0,SSW,13.8,-,N/A,,Overcast,200,2012-10-14 17:54:00
11:54 AM,62.1,55.9,80,29.98,10.0,South,11.5,-,N/A,,Overcast,190,2012-10-14 18:54:00
12:54 PM,62.1,55.9,80,29.98,10.0,South,15.0,-,0.00,Rain,Light Rain,190,2012-10-14 19:54:00
1:54 PM,62.1,57.0,84,29.96,10.0,South,13.8,-,0.00,Rain,Light Rain,190,2012-10-14 20:54:00
2:54 PM,61.0,57.0,87,29.94,8.0,South,13.8,-,0.02,Rain,Light Rain,180,2012-10-14 21:54:00
3:54 PM,60.1,57.9,93,29.94,4.0,SW,6.9,-,0.03,Rain,Rain,230,2012-10-14 22:54:00
4:54 PM,60.1,57.9,93,29.92,4.0,SSW,8.1,-,0.17,Rain,Light Rain,210,2012-10-14 23:54:00
5:54 PM,60.1,57.9,93,29.90,3.0,South,17.3,23.0,0.11,Rain,Rain,190,2012-10-15 00:54:00
6:54 PM,60.1,57.9,93,29.90,3.0,SSW,11.5,-,0.09,Rain,Rain,200,2012-10-15 01:54:00
7:01 PM,59.0,57.2,94,29.90,3.0,SSW,12.7,-,0.02,Rain,Light Rain,200,2012-10-15 02:01:00
7:04 PM,59.0,57.2,94,29.90,4.0,SSW,12.7,-,0.02,Rain,Light Rain,200,2012-10-15 02:04:00
7:54 PM,59.0,57.9,96,29.89,3.0,SSW,10.4,-,0.06,Rain,Light Rain,200,2012-10-15 02:54:00
8:01 PM,59.0,57.2,94,29.89,3.0,SSW,11.5,-,0.00,Rain,Light Rain,200,2012-10-15 03:01:00
8:54 PM,59.0,57.9,96,29.89,4.0,SSW,10.4,-,0.03,Rain,Light Rain,200,2012-10-15 03:54:00
9:54 PM,59.0,57.9,96,29.90,3.0,SSW,10.4,-,0.07,Rain,Rain,200,2012-10-15 04:54:00
10:54 PM,59.0,57.9,96,29.89,10.0,SSW,11.5,-,0.03,Rain,Light Rain,200,2012-10-15 05:54:00
11:54 PM,59.0,57.9,96,29.89,9.0,SSW,5.8,-,0.04,Rain,Light Rain,210,2012-10-15 06:54:00